GIA009 WIII-WAHI

Flight info

Callsign GIA009
Flight time 1h 30m
Altitude 35000
Route PW W17 CLP
Aircraft B738/M-SDE2E3FGHIRWXY/LB1

Departure

Time 2026-05-07 12:47
Airport Soekarno-Hatta International Airport (WIII)

Arrival

Time 2026-05-07 14:17
Airport Yogyakarta International Airport (WAHI)
Time Latitude Longitude Altitude Speed Heading
2026-05-07 12:12 -6.11622 106.66821 37 ft 0 kts 134°
2026-05-07 12:34 -6.11616 106.66815 37 ft 4 kts 137°
2026-05-07 12:34 -6.11595 106.66799 36 ft 4 kts 154°
2026-05-07 12:34 -6.11569 106.66790 37 ft 4 kts 169°
2026-05-07 12:35 -6.11543 106.66788 37 ft 4 kts 187°
2026-05-07 12:35 -6.11518 106.66795 32 ft 4 kts 219°
2026-05-07 12:35 -6.11508 106.66806 37 ft 1 kts 248°
2026-05-07 12:35 -6.11507 106.66808 37 ft 0 kts 248°
2026-05-07 12:38 -6.11516 106.66786 35 ft 7 kts 248°
2026-05-07 12:38 -6.11537 106.66732 37 ft 9 kts 248°
2026-05-07 12:38 -6.11564 106.66664 37 ft 12 kts 248°
2026-05-07 12:38 -6.11597 106.66581 37 ft 14 kts 247°
2026-05-07 12:39 -6.11635 106.66485 37 ft 16 kts 249°
2026-05-07 12:39 -6.11679 106.66375 37 ft 18 kts 247°
2026-05-07 12:39 -6.11727 106.66252 35 ft 20 kts 249°
2026-05-07 12:39 -6.11779 106.66123 36 ft 15 kts 248°
2026-05-07 12:40 -6.11797 106.66047 37 ft 11 kts 282°
2026-05-07 12:40 -6.11735 106.65997 35 ft 13 kts 336°
2026-05-07 12:40 -6.11647 106.65962 37 ft 15 kts 338°
2026-05-07 12:40 -6.11554 106.65918 37 ft 14 kts 334°
2026-05-07 12:41 -6.11518 106.65837 37 ft 14 kts 254°
2026-05-07 12:41 -6.11553 106.65747 37 ft 13 kts 248°
2026-05-07 12:41 -6.11587 106.65661 37 ft 13 kts 249°
2026-05-07 12:41 -6.11619 106.65577 36 ft 13 kts 248°
2026-05-07 12:42 -6.11652 106.65495 37 ft 13 kts 248°
2026-05-07 12:42 -6.11690 106.65402 36 ft 16 kts 248°
2026-05-07 12:42 -6.11734 106.65291 38 ft 19 kts 248°
2026-05-07 12:42 -6.11787 106.65162 36 ft 21 kts 246°
2026-05-07 12:43 -6.11842 106.65019 38 ft 23 kts 248°
2026-05-07 12:43 -6.11905 106.64863 37 ft 25 kts 248°
2026-05-07 12:43 -6.11973 106.64693 36 ft 27 kts 248°
2026-05-07 12:43 -6.12039 106.64526 38 ft 24 kts 245°
2026-05-07 12:44 -6.12103 106.64365 38 ft 25 kts 247°
2026-05-07 12:44 -6.12165 106.64211 38 ft 15 kts 249°
2026-05-07 12:44 -6.12208 106.64106 36 ft 16 kts 248°
2026-05-07 12:44 -6.12241 106.64023 38 ft 8 kts 248°
2026-05-07 12:45 -6.12258 106.63970 38 ft 8 kts 263°
2026-05-07 12:45 -6.12235 106.63914 39 ft 10 kts 312°
2026-05-07 12:45 -6.12176 106.63894 40 ft 9 kts
2026-05-07 12:45 -6.12118 106.63901 40 ft 6 kts 355°
2026-05-07 12:46 -6.12077 106.63913 40 ft 6 kts 45°
2026-05-07 12:46 -6.12068 106.63953 39 ft 6 kts 88°
2026-05-07 12:46 -6.12052 106.64005 38 ft 22 kts 67°
2026-05-07 12:46 -6.11880 106.64432 40 ft 107 kts 68°
2026-05-07 12:47 -6.11516 106.65352 125 ft 168 kts 68°
2026-05-07 12:47 -6.11084 106.66528 797 ft 190 kts 69°
2026-05-07 12:47 -6.10549 106.67889 1149 ft 226 kts 65°
2026-05-07 12:47 -6.09469 106.69189 1491 ft 259 kts 43°
2026-05-07 12:48 -6.08083 106.70455 1927 ft 282 kts 45°
2026-05-07 12:48 -6.06649 106.71842 2703 ft 288 kts 46°
2026-05-07 12:48 -6.05225 106.73281 3476 ft 294 kts 48°
2026-05-07 12:48 -6.03819 106.74751 4320 ft 297 kts 49°
2026-05-07 12:49 -6.02390 106.76276 5093 ft 302 kts 49°
2026-05-07 12:49 -6.00942 106.77833 5892 ft 307 kts 49°
2026-05-07 12:49 -5.99481 106.79415 6676 ft 310 kts 51°
2026-05-07 12:49 -5.98392 106.81268 7395 ft 310 kts 74°
2026-05-07 12:50 -5.98132 106.83404 8167 ft 310 kts 95°
2026-05-07 12:50 -5.98622 106.85517 8912 ft 313 kts 108°
2026-05-07 12:50 -5.99329 106.87603 9611 ft 318 kts 109°
2026-05-07 12:50 -6.00078 106.89715 10252 ft 323 kts 109°
2026-05-07 12:51 -6.00837 106.91849 10921 ft 326 kts 109°
2026-05-07 12:51 -6.01596 106.94006 11568 ft 330 kts 109°
2026-05-07 12:51 -6.02358 106.96192 12216 ft 333 kts 109°
2026-05-07 12:51 -6.03123 106.98404 12853 ft 337 kts 109°
2026-05-07 12:52 -6.03894 107.00647 13493 ft 341 kts 109°
2026-05-07 12:52 -6.04671 107.02912 14066 ft 344 kts 109°
2026-05-07 12:52 -6.05453 107.05195 14644 ft 347 kts 109°
2026-05-07 12:52 -6.06233 107.07473 15183 ft 350 kts 109°
2026-05-07 12:53 -6.07029 107.09799 15762 ft 353 kts 109°
2026-05-07 12:53 -6.07833 107.12148 16296 ft 357 kts 109°
2026-05-07 12:53 -6.08644 107.14519 16844 ft 361 kts 109°
2026-05-07 12:53 -6.09631 107.16845 17357 ft 364 kts 123°
2026-05-07 12:54 -6.11307 107.18768 17880 ft 368 kts 142°
2026-05-07 12:54 -6.13465 107.20161 18400 ft 370 kts 149°
2026-05-07 12:54 -6.15720 107.21441 18840 ft 374 kts 150°
2026-05-07 12:54 -6.18009 107.22716 19276 ft 377 kts 150°
2026-05-07 12:55 -6.20313 107.24009 19718 ft 381 kts 150°
2026-05-07 12:55 -6.22631 107.25327 20162 ft 384 kts 149°
2026-05-07 12:55 -6.24957 107.26663 20608 ft 387 kts 149°
2026-05-07 12:55 -6.27303 107.28017 21034 ft 390 kts 149°
2026-05-07 12:56 -6.29663 107.29382 21459 ft 393 kts 149°
2026-05-07 12:56 -6.32049 107.30761 21877 ft 396 kts 149°
2026-05-07 12:56 -6.34450 107.32147 22284 ft 400 kts 149°
2026-05-07 12:56 -6.36842 107.33527 22685 ft 403 kts 149°
2026-05-07 12:57 -6.39280 107.34935 23089 ft 406 kts 149°
2026-05-07 12:57 -6.41739 107.36354 23474 ft 409 kts 149°
2026-05-07 12:57 -6.44212 107.37783 23804 ft 411 kts 149°
2026-05-07 12:57 -6.46700 107.39220 24153 ft 413 kts 149°
2026-05-07 12:58 -6.49198 107.40663 24504 ft 415 kts 149°
2026-05-07 12:58 -6.51706 107.42113 24839 ft 417 kts 149°
2026-05-07 12:58 -6.54231 107.43571 25164 ft 419 kts 149°
2026-05-07 12:58 -6.56801 107.44962 25468 ft 422 kts 157°
2026-05-07 12:59 -6.59645 107.45743 25779 ft 425 kts 168°
2026-05-07 12:59 -6.62564 107.46284 26118 ft 427 kts 169°
2026-05-07 12:59 -6.65477 107.46798 26667 ft 422 kts 169°
2026-05-07 12:59 -6.68349 107.47318 27232 ft 417 kts 169°
2026-05-07 13:00 -6.71182 107.47853 27801 ft 412 kts 168°
2026-05-07 13:00 -6.73040 107.48212 28187 ft 409 kts 168°
2026-05-07 13:00 -6.75818 107.48757 28780 ft 404 kts 168°
2026-05-07 13:00 -6.79440 107.49473 29590 ft 396 kts 168°
2026-05-07 13:01 -6.81232 107.49826 29993 ft 393 kts 168°
2026-05-07 13:01 -6.83928 107.50357 30527 ft 387 kts 168°
2026-05-07 13:01 -6.86499 107.51121 30781 ft 389 kts 151°
2026-05-07 13:01 -6.88656 107.52717 30836 ft 394 kts 132°
2026-05-07 13:02 -6.90242 107.54981 30913 ft 400 kts 117°
2026-05-07 13:02 -6.91536 107.57487 31011 ft 408 kts 116°
2026-05-07 13:02 -6.94086 107.62708 31145 ft 423 kts 115°
2026-05-07 13:03 -6.96731 107.68107 31279 ft 436 kts 116°
2026-05-07 13:03 -6.98089 107.70843 31593 ft 435 kts 116°
2026-05-07 13:03 -6.99441 107.73549 32008 ft 431 kts 116°
2026-05-07 13:04 -7.00789 107.76238 32430 ft 428 kts 116°
2026-05-07 13:04 -7.02126 107.78899 32854 ft 424 kts 116°
2026-05-07 13:04 -7.03454 107.81541 33283 ft 420 kts 116°
2026-05-07 13:04 -7.04770 107.84161 33725 ft 417 kts 116°
2026-05-07 13:05 -7.06055 107.86718 34130 ft 413 kts 116°
2026-05-07 13:05 -7.07341 107.89278 34519 ft 408 kts 116°
2026-05-07 13:05 -7.08627 107.91841 34624 ft 413 kts 116°
2026-05-07 13:05 -7.09934 107.94445 34679 ft 419 kts 116°
2026-05-07 13:06 -7.12593 107.99748 34829 ft 428 kts 116°
2026-05-07 13:06 -7.13939 108.02432 34945 ft 431 kts 116°
2026-05-07 13:06 -7.15301 108.05148 34940 ft 436 kts 116°
2026-05-07 13:07 -7.18065 108.10662 34959 ft 445 kts 116°
2026-05-07 13:07 -7.20882 108.16282 34956 ft 454 kts 116°
2026-05-07 13:08 -7.23753 108.22014 34950 ft 462 kts 116°
2026-05-07 13:08 -7.26670 108.27839 34943 ft 468 kts 116°
2026-05-07 13:09 -7.29608 108.33707 34934 ft 470 kts 116°
2026-05-07 13:09 -7.32556 108.39599 34927 ft 471 kts 116°
2026-05-07 13:10 -7.35486 108.45458 34924 ft 471 kts 116°
2026-05-07 13:10 -7.38432 108.51351 34917 ft 470 kts 116°
2026-05-07 13:11 -7.41364 108.57218 34915 ft 468 kts 116°
2026-05-07 13:11 -7.44278 108.63050 34906 ft 464 kts 116°
2026-05-07 13:12 -7.47178 108.68858 34910 ft 464 kts 116°
2026-05-07 13:12 -7.50081 108.74672 34916 ft 466 kts 116°
2026-05-07 13:13 -7.53000 108.80524 34912 ft 468 kts 116°
2026-05-07 13:13 -7.55929 108.86396 34910 ft 469 kts 116°
2026-05-07 13:14 -7.58860 108.92276 34905 ft 469 kts 116°
2026-05-07 13:14 -7.61786 108.98149 34903 ft 469 kts 116°
2026-05-07 13:15 -7.64562 109.04091 34875 ft 468 kts 105°
2026-05-07 13:15 -7.65534 109.10545 34897 ft 466 kts 96°
2026-05-07 13:16 -7.66227 109.16957 34510 ft 458 kts 96°
2026-05-07 13:16 -7.66588 109.20151 33967 ft 458 kts 97°
2026-05-07 13:16 -7.66965 109.23351 33172 ft 462 kts 97°
2026-05-07 13:17 -7.67356 109.26573 32425 ft 464 kts 97°
2026-05-07 13:17 -7.67757 109.29812 31691 ft 467 kts 97°
2026-05-07 13:17 -7.68158 109.33039 30962 ft 462 kts 97°
2026-05-07 13:17 -7.68557 109.36232 30256 ft 456 kts 97°
2026-05-07 13:18 -7.68949 109.39387 29492 ft 451 kts 97°
2026-05-07 13:18 -7.69337 109.42505 28695 ft 445 kts 97°
2026-05-07 13:18 -7.69717 109.45574 28020 ft 437 kts 97°
2026-05-07 13:18 -7.70090 109.48583 27382 ft 429 kts 97°
2026-05-07 13:19 -7.70456 109.51548 26756 ft 422 kts 97°
2026-05-07 13:19 -7.70815 109.54453 26231 ft 413 kts 97°
2026-05-07 13:19 -7.71167 109.57302 25717 ft 405 kts 97°
2026-05-07 13:19 -7.71512 109.60092 25215 ft 398 kts 97°
2026-05-07 13:20 -7.71850 109.62836 24717 ft 391 kts 97°
2026-05-07 13:20 -7.72183 109.65534 24236 ft 384 kts 97°
2026-05-07 13:20 -7.72511 109.68193 23757 ft 379 kts 97°
2026-05-07 13:20 -7.72829 109.70776 23253 ft 373 kts 97°
2026-05-07 13:21 -7.73146 109.73354 22691 ft 368 kts 97°
2026-05-07 13:21 -7.73463 109.75925 22157 ft 370 kts 97°
2026-05-07 13:21 -7.73780 109.78505 21613 ft 368 kts 97°
2026-05-07 13:21 -7.74095 109.81071 21086 ft 370 kts 98°
2026-05-07 13:22 -7.74413 109.83653 20575 ft 372 kts 98°
2026-05-07 13:22 -7.74731 109.86243 20066 ft 373 kts 98°
2026-05-07 13:22 -7.75049 109.88833 19551 ft 369 kts 98°
2026-05-07 13:22 -7.75593 109.91322 19023 ft 361 kts 115°
2026-05-07 13:23 -7.76931 109.93427 18552 ft 357 kts 135°
2026-05-07 13:23 -7.78891 109.94942 18068 ft 356 kts 154°
2026-05-07 13:23 -7.81192 109.95714 17510 ft 351 kts 171°
2026-05-07 13:23 -7.83604 109.95750 16961 ft 345 kts 189°
2026-05-07 13:24 -7.85924 109.95218 16485 ft 340 kts 194°
2026-05-07 13:24 -7.88210 109.94586 16017 ft 341 kts 195°
2026-05-07 13:24 -7.90496 109.93936 15543 ft 342 kts 194°
2026-05-07 13:24 -7.92780 109.93296 15096 ft 337 kts 194°
2026-05-07 13:25 -7.95014 109.92683 14948 ft 328 kts 194°
2026-05-07 13:25 -7.97221 109.92087 14495 ft 330 kts 193°
2026-05-07 13:25 -7.99444 109.91492 14070 ft 332 kts 193°
2026-05-07 13:25 -8.01684 109.90893 13611 ft 334 kts 193°
2026-05-07 13:26 -8.03930 109.90295 13107 ft 332 kts 193°
2026-05-07 13:26 -8.06145 109.89711 12603 ft 326 kts 193°
2026-05-07 13:26 -8.08330 109.89136 12076 ft 322 kts 193°
2026-05-07 13:26 -8.10493 109.88566 11545 ft 319 kts 193°
2026-05-07 13:27 -8.12635 109.88011 11028 ft 316 kts 189°
2026-05-07 13:27 -8.14797 109.87996 10489 ft 309 kts 165°
2026-05-07 13:27 -8.16726 109.88865 9994 ft 303 kts 141°
2026-05-07 13:27 -8.18153 109.90385 9471 ft 297 kts 121°
2026-05-07 13:28 -8.18943 109.92250 8918 ft 292 kts 98°
2026-05-07 13:28 -8.18776 109.94276 8463 ft 285 kts 69°
2026-05-07 13:28 -8.17783 109.95945 8065 ft 280 kts 47°
2026-05-07 13:28 -8.16240 109.97101 7664 ft 277 kts 26°
2026-05-07 13:29 -8.14433 109.97650 7474 ft 264 kts
2026-05-07 13:29 -8.12671 109.97599 7390 ft 245 kts 354°
2026-05-07 13:29 -8.11042 109.97318 7194 ft 231 kts 352°
2026-05-07 13:29 -8.09470 109.97007 6813 ft 228 kts 351°
2026-05-07 13:30 -8.07931 109.96701 6462 ft 222 kts 351°
2026-05-07 13:30 -8.06429 109.96406 6087 ft 217 kts 351°
2026-05-07 13:30 -8.04957 109.96121 5693 ft 213 kts 351°
2026-05-07 13:30 -8.03520 109.95846 5376 ft 207 kts 352°
2026-05-07 13:31 -8.02129 109.95582 5056 ft 201 kts 352°
2026-05-07 13:31 -8.00759 109.95324 4720 ft 200 kts 352°
2026-05-07 13:31 -7.99388 109.95066 4376 ft 200 kts 352°
2026-05-07 13:31 -7.97999 109.94807 4043 ft 206 kts 353°
2026-05-07 13:32 -7.96595 109.94545 3731 ft 209 kts 353°
2026-05-07 13:32 -7.95139 109.94272 3393 ft 210 kts 353°
2026-05-07 13:32 -7.93713 109.94006 3047 ft 211 kts 354°
2026-05-07 13:32 -7.92270 109.93738 2716 ft 211 kts 353°
2026-05-07 13:33 -7.90823 109.93468 2378 ft 211 kts 354°
2026-05-07 13:33 -7.89374 109.93199 2020 ft 213 kts 353°
2026-05-07 13:33 -7.87922 109.93091 1665 ft 204 kts 19°
2026-05-07 13:33 -7.86884 109.93863 1522 ft 178 kts 67°
2026-05-07 13:34 -7.86830 109.95018 1518 ft 164 kts 108°
2026-05-07 13:34 -7.87403 109.97129 1460 ft 152 kts 110°
2026-05-07 13:34 -7.87766 109.98113 1280 ft 148 kts 111°
2026-05-07 13:35 -7.88123 109.99090 1094 ft 149 kts 110°
2026-05-07 13:35 -7.88476 110.00064 913 ft 147 kts 110°
2026-05-07 13:35 -7.88825 110.01027 743 ft 145 kts 111°
2026-05-07 13:35 -7.89205 110.02076 658 ft 173 kts 111°
2026-05-07 13:36 -7.89623 110.03191 433 ft 164 kts 109°
2026-05-07 13:36 -7.89970 110.04185 221 ft 139 kts 112°
2026-05-07 13:36 -7.90303 110.05024 155 ft 125 kts 114°
2026-05-07 13:36 -7.90665 110.05934 598 ft 149 kts 109°
2026-05-07 13:37 -7.90965 110.06876 1478 ft 134 kts 115°
2026-05-07 13:37 -7.91358 110.07682 2469 ft 126 kts 116°
2026-05-07 13:37 -7.92017 110.08292 2896 ft 146 kts 161°
2026-05-07 13:37 -7.93102 110.08618 2989 ft 183 kts 151°
2026-05-07 13:38 -7.94362 110.08991 2985 ft 193 kts 172°
2026-05-07 13:38 -7.95737 110.09087 2993 ft 202 kts 171°
2026-05-07 13:38 -7.97222 110.09221 3002 ft 228 kts 171°
2026-05-07 13:38 -7.98841 110.09377 3002 ft 231 kts 171°
2026-05-07 13:39 -8.00417 110.09548 3003 ft 229 kts 167°
2026-05-07 13:39 -8.01972 110.09856 3085 ft 227 kts 166°
2026-05-07 13:39 -8.03548 110.10127 3536 ft 231 kts 169°
2026-05-07 13:39 -8.05153 110.10322 4289 ft 234 kts 172°
2026-05-07 13:40 -8.06795 110.10473 4852 ft 238 kts 173°
2026-05-07 13:40 -8.08469 110.10600 4971 ft 242 kts 174°
2026-05-07 13:40 -8.10158 110.10717 5001 ft 244 kts 174°
2026-05-07 13:40 -8.11818 110.10424 4983 ft 247 kts 209°
2026-05-07 13:41 -8.13026 110.09209 5016 ft 247 kts 234°
2026-05-07 13:41 -8.13996 110.07797 5009 ft 249 kts 234°
2026-05-07 13:41 -8.15013 110.06360 5012 ft 253 kts 233°
2026-05-07 13:41 -8.16051 110.04921 5011 ft 255 kts 233°
2026-05-07 13:42 -8.17099 110.03481 5001 ft 254 kts 234°
2026-05-07 13:42 -8.17794 110.01868 4995 ft 251 kts 263°
2026-05-07 13:42 -8.17605 110.00149 4999 ft 247 kts 294°
2026-05-07 13:42 -8.16620 109.98761 4940 ft 247 kts 323°
2026-05-07 13:43 -8.15110 109.97967 4777 ft 243 kts 346°
2026-05-07 13:43 -8.13475 109.97585 4588 ft 239 kts 351°
2026-05-07 13:43 -8.11886 109.97303 4426 ft 231 kts 353°
2026-05-07 13:43 -8.10326 109.97035 4203 ft 224 kts 353°
2026-05-07 13:44 -8.08788 109.96768 4010 ft 225 kts 353°
2026-05-07 13:44 -8.07240 109.96495 3807 ft 226 kts 354°
2026-05-07 13:44 -8.05709 109.96220 3699 ft 218 kts 354°
2026-05-07 13:44 -8.04211 109.95948 3643 ft 219 kts 353°
2026-05-07 13:45 -8.02709 109.95674 3536 ft 219 kts 353°
2026-05-07 13:45 -8.01210 109.95398 3436 ft 219 kts 352°
2026-05-07 13:45 -7.99717 109.95121 3349 ft 218 kts 353°
2026-05-07 13:45 -7.98234 109.94846 3230 ft 216 kts 353°
2026-05-07 13:46 -7.96752 109.94571 3005 ft 215 kts 353°
2026-05-07 13:46 -7.95282 109.94298 2791 ft 216 kts 353°
2026-05-07 13:46 -7.93797 109.94021 2589 ft 217 kts 353°
2026-05-07 13:46 -7.92821 109.93839 2442 ft 213 kts 354°
2026-05-07 13:47 -7.90893 109.93479 2135 ft 208 kts 354°
2026-05-07 13:47 -7.89946 109.93303 1992 ft 210 kts 353°
2026-05-07 13:47 -7.88042 109.92951 1693 ft 205 kts 356°
2026-05-07 13:47 -7.86726 109.93138 1526 ft 192 kts 38°
2026-05-07 13:48 -7.86032 109.94201 1501 ft 182 kts 86°
2026-05-07 13:48 -7.86383 109.95354 1507 ft 173 kts 128°
2026-05-07 13:48 -7.87028 109.96325 1493 ft 161 kts 112°
2026-05-07 13:48 -7.87450 109.97331 1407 ft 152 kts 113°
2026-05-07 13:49 -7.87712 109.97980 1299 ft 149 kts 111°
2026-05-07 13:49 -7.88075 109.98957 1112 ft 147 kts 110°
2026-05-07 13:49 -7.88426 109.99923 949 ft 147 kts 110°
2026-05-07 13:49 -7.88773 110.00884 763 ft 145 kts 111°
2026-05-07 13:50 -7.89121 110.01843 580 ft 148 kts 110°
2026-05-07 13:50 -7.89449 110.02815 350 ft 140 kts 114°
2026-05-07 13:50 -7.89884 110.03945 143 ft 120 kts 112°
2026-05-07 13:50 -7.90069 110.04468 50 ft 119 kts 112°
2026-05-07 13:51 -7.90332 110.05183 30 ft 95 kts 108°
2026-05-07 13:51 -7.90615 110.05953 154 ft 142 kts 112°
2026-05-07 13:51 -7.90936 110.06942 887 ft 154 kts 109°
2026-05-07 13:51 -7.91539 110.08079 954 ft 200 kts 122°
2026-05-07 13:52 -7.92145 110.09322 1034 ft 199 kts 112°
2026-05-07 13:52 -7.92676 110.10718 1132 ft 228 kts 111°
2026-05-07 13:52 -7.93257 110.12270 1552 ft 245 kts 110°
2026-05-07 13:52 -7.93856 110.13871 2373 ft 245 kts 110°
2026-05-07 13:53 -7.94467 110.15502 3126 ft 254 kts 110°
2026-05-07 13:53 -7.95153 110.17164 3701 ft 259 kts 123°
2026-05-07 13:53 -7.96517 110.18309 3983 ft 261 kts 156°
2026-05-07 13:53 -7.98347 110.18516 3999 ft 274 kts 185°
2026-05-07 13:54 -8.00150 110.17886 3995 ft 278 kts 210°
2026-05-07 13:54 -8.01636 110.16644 4283 ft 279 kts 220°
2026-05-07 13:54 -8.03073 110.15290 4886 ft 286 kts 222°
2026-05-07 13:54 -8.04525 110.13903 4961 ft 287 kts 222°
2026-05-07 13:55 -8.05973 110.12524 4979 ft 285 kts 222°
2026-05-07 13:55 -8.07411 110.11161 4983 ft 282 kts 222°
2026-05-07 13:55 -8.08837 110.09816 4991 ft 281 kts 222°
2026-05-07 13:55 -8.10267 110.08474 5003 ft 281 kts 221°
2026-05-07 13:56 -8.11700 110.07129 5000 ft 281 kts 222°
2026-05-07 13:56 -8.13131 110.05787 5003 ft 281 kts 222°
2026-05-07 13:56 -8.14540 110.04448 5009 ft 282 kts 226°
2026-05-07 13:56 -8.15515 110.02739 5005 ft 283 kts 255°
2026-05-07 13:57 -8.15601 110.00776 5008 ft 282 kts 283°
2026-05-07 13:57 -8.14802 109.98981 4814 ft 282 kts 310°
2026-05-07 13:57 -8.13290 109.97779 4585 ft 275 kts 336°
2026-05-07 13:57 -8.11485 109.97241 4353 ft 268 kts 351°
2026-05-07 13:58 -8.09662 109.96899 4094 ft 264 kts 353°
2026-05-07 13:58 -8.07893 109.96590 3942 ft 254 kts 354°
2026-05-07 13:58 -8.06159 109.96287 3689 ft 252 kts 352°
2026-05-07 13:58 -8.04453 109.95985 3450 ft 252 kts 353°
2026-05-07 13:59 -8.02723 109.95673 3189 ft 254 kts 352°
2026-05-07 13:59 -8.00957 109.95350 2930 ft 260 kts 353°
2026-05-07 13:59 -7.99145 109.95016 2685 ft 266 kts 353°
2026-05-07 13:59 -7.97352 109.94682 2579 ft 256 kts 353°
2026-05-07 14:00 -7.95652 109.94364 2509 ft 241 kts 354°
2026-05-07 14:00 -7.94060 109.94066 2417 ft 226 kts 353°
2026-05-07 14:00 -7.92561 109.93786 2294 ft 213 kts 354°
2026-05-07 14:00 -7.91123 109.93518 2099 ft 207 kts 354°
2026-05-07 14:01 -7.89719 109.93258 1868 ft 203 kts 354°
2026-05-07 14:01 -7.88368 109.93220 1651 ft 192 kts 25°
2026-05-07 14:01 -7.87447 109.94065 1558 ft 181 kts 72°
2026-05-07 14:01 -7.87355 109.95271 1547 ft 166 kts 91°
2026-05-07 14:02 -7.87349 109.96382 1491 ft 150 kts 101°
2026-05-07 14:02 -7.87579 109.97396 1381 ft 150 kts 105°
2026-05-07 14:02 -7.87876 109.98389 1210 ft 146 kts 109°
2026-05-07 14:02 -7.88216 109.99348 1043 ft 147 kts 110°
2026-05-07 14:03 -7.88563 110.00307 869 ft 144 kts 111°
2026-05-07 14:03 -7.88909 110.01259 688 ft 146 kts 110°
2026-05-07 14:03 -7.89256 110.02228 470 ft 142 kts 113°
2026-05-07 14:03 -7.89577 110.03113 348 ft 131 kts 113°
2026-05-07 14:04 -7.89879 110.03950 139 ft 124 kts 114°
2026-05-07 14:04 -7.90167 110.04727 30 ft 111 kts 109°
2026-05-07 14:04 -7.90457 110.05509 134 ft 140 kts 112°
2026-05-07 14:04 -7.90823 110.06560 540 ft 179 kts 116°
2026-05-07 14:05 -7.91382 110.07717 1248 ft 186 kts 108°
2026-05-07 14:05 -7.91648 110.09003 1343 ft 178 kts 103°
2026-05-07 14:05 -7.91997 110.10198 1360 ft 181 kts 110°
2026-05-07 14:05 -7.92415 110.11423 1445 ft 186 kts 111°
2026-05-07 14:06 -7.93208 110.12403 1416 ft 190 kts 153°
2026-05-07 14:06 -7.94534 110.12496 1506 ft 201 kts 191°
2026-05-07 14:06 -7.95758 110.11773 1496 ft 211 kts 225°
2026-05-07 14:06 -7.96428 110.10441 1499 ft 220 kts 258°
2026-05-07 14:07 -7.96308 110.08906 1500 ft 223 kts 284°
2026-05-07 14:07 -7.95894 110.07408 1495 ft 221 kts 284°
2026-05-07 14:07 -7.95502 110.05894 1498 ft 225 kts 285°
2026-05-07 14:07 -7.95043 110.04377 1506 ft 226 kts 288°
2026-05-07 14:08 -7.94524 110.02888 1500 ft 225 kts 289°
2026-05-07 14:08 -7.93983 110.01406 1502 ft 225 kts 289°
2026-05-07 14:08 -7.93420 109.99929 1497 ft 226 kts 290°
2026-05-07 14:08 -7.92862 109.98444 1485 ft 228 kts 290°
2026-05-07 14:09 -7.92318 109.96946 1488 ft 225 kts 290°
2026-05-07 14:09 -7.91787 109.95482 1505 ft 223 kts 290°
2026-05-07 14:09 -7.91252 109.94023 1501 ft 225 kts 289°
2026-05-07 14:09 -7.90691 109.92544 1513 ft 227 kts 289°
2026-05-07 14:10 -7.90127 109.91053 1505 ft 227 kts 290°
2026-05-07 14:10 -7.89566 109.89567 1489 ft 226 kts 289°
2026-05-07 14:10 -7.89096 109.88068 1482 ft 224 kts 275°
2026-05-07 14:10 -7.88933 109.86520 1491 ft 222 kts 275°
2026-05-07 14:11 -7.88610 109.84983 1468 ft 227 kts 301°
2026-05-07 14:11 -7.87472 109.83975 1525 ft 219 kts 346°
2026-05-07 14:11 -7.86017 109.83985 1514 ft 210 kts 24°
2026-05-07 14:11 -7.84767 109.84725 1516 ft 208 kts 47°
2026-05-07 14:12 -7.84002 109.85905 1496 ft 199 kts 77°
2026-05-07 14:12 -7.84084 109.87251 1531 ft 193 kts 105°
2026-05-07 14:12 -7.84400 109.88546 1509 ft 184 kts 105°
2026-05-07 14:12 -7.84745 109.89696 1482 ft 163 kts 109°
2026-05-07 14:13 -7.85103 109.90734 1523 ft 153 kts 109°
2026-05-07 14:13 -7.85454 109.91718 1519 ft 150 kts 110°
2026-05-07 14:13 -7.85812 109.92708 1516 ft 150 kts 109°
2026-05-07 14:13 -7.86165 109.93684 1512 ft 147 kts 110°
2026-05-07 14:14 -7.86514 109.94648 1508 ft 145 kts 110°
2026-05-07 14:14 -7.86859 109.95600 1512 ft 144 kts 110°
2026-05-07 14:14 -7.87203 109.96550 1518 ft 145 kts 110°
2026-05-07 14:14 -7.87560 109.97535 1394 ft 152 kts 110°
2026-05-07 14:15 -7.87919 109.98527 1215 ft 150 kts 110°
2026-05-07 14:15 -7.88274 109.99508 1044 ft 147 kts 111°
2026-05-07 14:15 -7.88624 110.00472 858 ft 147 kts 110°
2026-05-07 14:15 -7.88973 110.01453 657 ft 151 kts 112°
2026-05-07 14:16 -7.89336 110.02434 487 ft 149 kts 110°
2026-05-07 14:16 -7.89666 110.03372 278 ft 135 kts 112°
2026-05-07 14:16 -7.89997 110.04275 95 ft 134 kts 111°
2026-05-07 14:16 -7.90309 110.05106 29 ft 116 kts 111°
2026-05-07 14:17 -7.90555 110.05801 36 ft 95 kts 110°
2026-05-07 14:17 -7.90737 110.06298 32 ft 50 kts 110°
2026-05-07 14:17 -7.90837 110.06572 34 ft 41 kts 110°
2026-05-07 14:17 -7.90932 110.06832 34 ft 39 kts 109°
2026-05-07 14:18 -7.90954 110.07021 35 ft 24 kts 67°
2026-05-07 14:18 -7.90944 110.07041 36 ft 0 kts 64°
2026-05-07 14:18 -7.90939 110.07050 36 ft 3 kts 64°
2026-05-07 14:18 -7.90924 110.07079 36 ft 7 kts 58°
2026-05-07 14:19 -7.90859 110.07093 35 ft 15 kts 321°
2026-05-07 14:19 -7.90806 110.06971 33 ft 24 kts 291°
2026-05-07 14:19 -7.90743 110.06797 32 ft 24 kts 289°
2026-05-07 14:19 -7.90674 110.06613 30 ft 31 kts 289°
2026-05-07 14:20 -7.90627 110.06494 32 ft 14 kts 310°
2026-05-07 14:20 -7.90567 110.06484 32 ft 10 kts 14°
2026-05-07 14:20 -7.90503 110.06505 36 ft 10 kts 11°
2026-05-07 14:20 -7.90447 110.06472 36 ft 11 kts 296°
2026-05-07 14:21 -7.90413 110.06390 37 ft 14 kts 291°
2026-05-07 14:21 -7.90373 110.06284 37 ft 18 kts 290°
2026-05-07 14:21 -7.90327 110.06161 34 ft 20 kts 291°
2026-05-07 14:21 -7.90284 110.06046 34 ft 14 kts 290°
2026-05-07 14:22 -7.90251 110.05957 37 ft 11 kts 290°
2026-05-07 14:22 -7.90233 110.05919 35 ft 2 kts 325°
2026-05-07 14:22 -7.90212 110.05921 37 ft 5 kts 11°
2026-05-07 14:22 -7.90192 110.05926 35 ft 2 kts 18°
2026-05-07 14:23 -7.90170 110.05934 34 ft 5 kts 20°
2026-05-07 14:23 -7.90158 110.05939 36 ft 2 kts 20°
2026-05-07 14:23 -7.90149 110.05942 37 ft 1 kts 20°
2026-05-07 14:23 -7.90143 110.05944 37 ft 0 kts 20°
2026-05-07 14:24 -7.90139 110.05945 37 ft 0 kts 21°